Location: Caltech
(34.1382°N, 118.1253°W)
Time: 21:33:04
(UTC-07:00)

Iridium 12 - Visible Passes

Search period start: 31 March 2015 00:00
Search period end: 10 April 2015 00:00
Orbit: 776 x 779 km, 86.4° (Epoch: 31 March)

Date Brightness Start Highest point End Pass type
(mag) Time Alt. Az. Time Alt. Az. Time Alt. Az.
31 Mar 6.9 21:47:02 10° N 21:49:39 30° N 21:49:39 30° N visible
01 Apr 6.7 21:13:46 10° NNE 21:16:38 29° NE 21:16:38 29° NE visible
01 Apr 8.2 22:55:33 10° NW 22:57:09 15° NW 22:57:09 15° NW visible
02 Apr 7.0 20:41:02 10° NNE 20:43:39 20° ENE 20:43:39 20° ENE visible
02 Apr 7.3 22:21:02 10° NNW 22:24:10 29° NW 22:24:10 29° NW visible
03 Apr 7.5 20:09:56 10° ENE 20:10:42 11° ENE 20:10:42 11° ENE visible
03 Apr 6.2 21:47:08 10° N 21:51:12 52° NNW 21:51:12 52° NNW visible
04 Apr 5.6 21:13:38 10° N 21:18:16 58° ENE 21:18:16 58° ENE visible
04 Apr 8.3 22:57:01 10° WNW 22:58:47 12° WNW 22:58:47 12° WNW visible
05 Apr 6.2 20:40:33 10° NNE 20:45:08 31° E 20:45:23 31° E visible
05 Apr 7.5 22:21:36 10° NNW 22:25:44 23° W 22:25:53 23° W visible
06 Apr 7.0 20:08:09 10° NE 20:11:18 17° ENE 20:12:32 16° E visible
06 Apr 6.4 21:47:23 10° NNW 21:52:20 45° W 21:53:02 42° WSW visible
07 Apr 5.4 21:13:38 10° N 21:18:53 88° W 21:20:14 51° S visible
08 Apr 5.8 20:40:17 10° N 20:45:18 47° E 20:47:29 30° SE visible
08 Apr 8.1 22:22:30 10° NW 22:25:41 16° W 22:27:59 12° WSW visible
09 Apr 6.6 20:07:24 10° NNE 20:11:34 24° E 20:14:46 15° SE visible
09 Apr 7.2 21:47:46 10° NNW 21:52:20 30° W 21:55:17 18° SW visible
